www.pogodaiklimat.ru

ПОГОДА в Лонг-Биче, CA

  • Прогноз погоды в Лонг-Биче
  • Монитор погоды в Лонг-Биче
  • Климат в Лонг-Биче

АРХИВ ПОГОДЫ в Лонг-Биче

Время (UTC), дата Ветер
(напр.,м/с)
 
Видим.   Явления Облачность Т
(С)
Тd
(С)
f
(%)
Тe
(С)
Тes
(С)
Комфортность

P
(гПа)

Po
(гПа)
Тmin
(С)
Tmax
(С)
R
(мм)
SD
(см)
11:39 20.03 В  14 км    10/10 360 м  +15.0  +11.7  81  +14  +14      1013.8         
11:53 20.03 В  14 км    10/10 360 м  +15.0  +11.7  81  +15  +15    1016.0  1013.8         
12:53 20.03   14 км    10/10 1320 м  +15.0  +11.7  81  +15  +15    1016.4  1014.4         
13:53 20.03 В  13 км    8/8 420 м  +15.0  +11.7  81  +14  +14    1016.6  1014.4         
14:53 20.03 ЮВ  11 км    8/8 420 м
[средняя] 
+15.6  +11.7  78  +15  +15    1017.4  1015.4         
15:53 20.03 Ю  14 км    5/5 540 м  +16.7  +11.1  70  +16  +18    1017.5  1015.4         
16:53 20.03 Ю  16 км    8/8 540 м  +17.8  +11.1  65  +18  +19    1017.7  1015.8  +14.4  +17.8     
17:53 20.03 Ю  16 км    8/8 570 м  +18.3  +11.1  63  +18  +20    1017.4  1015.4         
18:49 20.03 нст  16 км  гроза  10/10 600 м  +18.0  +11.0  64  +18  +18      1015.1         
18:53 20.03 Ю  16 км  гроза  8/8 690 м  +18.3  +11.1  63  +18  +20    1017.2  1015.1         
19:10 20.03 Ю  16 км    8/8 690 м  +18.9  +10.6  59  +20  +22      1015.1         
19:20 20.03 Ю  16 км  гроза  8/8 690 м  +17.8  +10.0  60  +18  +20      1014.8         
19:53 20.03 ЮЗ  4
{8} 
16 км  гроза  8/8 810 м  +18.3  +10.6  61  +18  +20    1016.6  1014.4         
20:47 20.03 СЗ  16 км  гроза, GR  8/8 810 м  +17.0  +8.0  55  +17  +19      1014.4         
20:53 20.03 С  16 км  гроза, GR  8/8 810 м  +17.2  +7.8  54  +17  +19    1016.5  1014.4         
20:55 20.03 СЗ  16 км  гроза, GR  10/10 810 м  +17.2  +7.8  54  +17  +17      1014.4         
21:53 20.03 СЗ  6
{9} 
16 км  гроза, GR  10/10 810 м  +17.2  +10.0  63  +16  +16    1016.3  1014.1         
21:55 20.03 СЗ  5
{9} 
16 км  гроза, GR  10/10 900 м  +16.7  +10.0  65  +16  +16      1014.1         
22:53 20.03 З  16 км  гроза, GR  5/5 810 м  +17.2  +9.4  60  +16  +17    1016.6  1014.4  +16.7  +18.9     
23:53 20.03 З  16 км  гроза, GR  5/5 810 м  +16.7  +8.9  60  +16  +16    1016.8  1014.8         
00:08 21.03 З  16 км    8/0 3000 м
[средняя] 
+16.7  +8.9  60  +15  +16      1014.8         
00:53 21.03 З  16 км    ясно  +15.6  +8.3  62  +15  +15    1016.9  1014.8         
01:53 21.03 З  16 км    ясно  +15.0  +9.4  69  +14  +14    1017.4  1015.4         
02:53 21.03 З  16 км    ясно  +14.4  +10.0  75  +13  +13    1017.8  1015.8         
03:53 21.03 З  16 км    ясно  +14.4  +9.4  72  +13  +13    1018.3  1016.1         
04:53 21.03 З  16 км    ясно  +13.9  +9.4  74  +12  +12    1018.5  1016.5  +13.9  +17.8     
05:53 21.03 СЗ  16 км    ясно  +13.3  +7.8  69  +12  +12    1018.7  1016.8         
06:53 21.03 З  16 км    2/2 660 м  +13.3  +8.3  72  +11  +11    1019.0  1016.8         
07:53 21.03 З  16 км    ясно  +13.3  +8.3  72  +11  +11    1018.9  1016.8         
08:53 21.03 З  16 км    ясно  +12.8  +8.3  74  +11  +11    1019.0  1016.8         
09:53 21.03 З  16 км    ясно  +12.8  +7.2  69  +11  +11    1019.1  1017.1         
10:53 21.03 З  16 км    ясно  +12.8  +7.8  72  +11  +11    1019.4  1017.5  +12.8  +13.9     
11:53 21.03 З  16 км    2/2 840 м  +13.3  +7.8  69  +13  +13    1019.6  1017.5         
12:53 21.03   16 км    5/5 1410 м  +12.8  +7.2  69  +12  +12    1020.1  1018.1         
13:37 21.03 СЗ  14 км    10/10 660 м  +13.3  +8.3  72  +13  +13      1018.1         
13:53 21.03 СЗ  16 км  слабый дождь  10/10 660 м  +13.3  +8.9  75  +12  +12    1020.4  1018.5         
14:53 21.03   11 км    10/8 660 м
[средняя] 
+12.8  +8.3  74  +12  +13    1020.2  1018.1         
15:00 21.03   16 км    8/8 1950 м
[средняя] 
+12.8  +8.9  77  +12  +14      1018.1         
15:53 21.03 ЮВ  16 км    10/10 1650 м  +13.9  +8.3  69  +14  +14    1020.7  1018.5         
16:53 21.03 ЮЗ  10 км  слабый дождь  10/10 900 м  +13.3  +7.8  69  +13  +13    1020.9  1018.8  +11.7  +13.9  0.5   
17:53 21.03 нст  5 км  слабый дождь  10/10 480 м  +12.8  +8.9  77  +12  +12    1021.1  1019.2         
18:53 21.03 Ю  13 км  слабый дождь  10/10 1020 м  +13.3  +8.9  75  +12  +12    1020.7  1018.5         
19:53 21.03 Ю  16 км    5/5 600 м  +15.0  +9.4  69  +14  +19    1020.0  1017.8      1.5   
20:53 21.03 Ю  16 км    2/2 1950 м  +15.6  +9.4  67  +15  +22    1019.5  1017.5         
21:53 21.03 Ю  16 км    8/5 660 м
[средняя] 
+15.6  +9.4  67  +14  +16    1019.2  1017.1         
22:53 21.03 Ю  16 км    2/2 1290 м  +15.6  +9.4  67  +15  +18    1019.2  1017.1  +12.8  +16.1  1.5   
23:53 21.03 ЮЗ  16 км    2/2 1290 м  +15.6  +8.3  62  +15  +17    1019.3  1017.1         
00:53 22.03 З  16 км    ясно  +14.4  +6.7  60  +13  +14    1019.6  1017.5         

 

Местоположение метеостанции Long Beach Airport: широта 33.8117 долгота -118.1464 высота над уровнем моря 17 м.

В архиве по умолчанию представлена погода в Лонг-Биче за последние 1-2 суток. Обновление информации о фактической погоде в базе происходит ежечасно! Архивные данные за месяц целиком и за предыдущие месяцы Вы можете получить, выбрав интересующий диапазон дат из раскрывающегося списка и нажав кнопку "Ввод!".

Внимание! Архив погоды МЕТАР в базе сайта хранится не более 60 дней. Нет смысла пытаться выбрать более раннюю дату.

Внимание! Время в таблицах - всемирное. Для получения местного времени необходимо прибавить поправку, которая в Лонг-Биче равна -8 ч.

Ветер - указаны скорость ветра в м/с и направление, откуда дует ветер: С - северный, СВ - северо-восточный, В - восточный, ЮВ - юго-восточный, Ю - южный, ЮЗ - юго-западный, З - западный, СЗ - северо-западный.
Видимость - горизонтальная дальность видимости в метрах или километрах. При видимости от 1 до 10 км при отсутствии осадков обычно наблюдается дымка, при ухудшении видимости до 1 км и менее - туман. В сухую погоду видимость может ухудшаться дымом, пылью или мглою.
Атмосферные явления - указаны явления, наблюдавшиеся в указанный момент времени.
Облачность - указаны через наклонную черту верхняя и нижняя облачность в баллах и высота нижней границы облаков в метрах. Внимание: облачность, как и прочие метеорологические величины в США измеряются автоматическими метеостанциями. Указанные значения в баллах носят условный характер и показывают процент времени, в течение которого, в среднем, лазерный луч высотомера отражался от облаков обратно.
T - Температура воздуха - температура, измеренная на высоте 2 м над землей.
Td - Температура точки росы - температура, при понижении до которой содержащийся в воздухе водяной пар достигнет насыщения.
f - Относительная влажность воздуха - влажноcть воздуха, измеренная на высоте 2 м над землей.
Te - Эффективная температура - температура, которую ощущает одетый по сезону человек в тени. Характеристика душности погоды. При расчете учитывается влияние влажности воздуха и скорости ветра на теплоощущения человека.
Tes - Эффективная температура на солнце - температура, которую ощущает человек, с поправкой на солнечный нагрев. Характеристика знойности погоды. Зависит от высоты солнца над горизонтом, облачности и скорости ветра. Ночью, в пасмурную погоду, а также при ветре 12 м/с и более поправка равна нулю.
P - Атмосферное давление - приведенное к уровню моря атмосферное давление.
Po - Атмосферное давление - измеренное на уровне метеостанции атмосферное давление.
Tmin - Минимальная температура - минимум температуры воздуха на высоте 2 м над землей.
Tmax - Максимальная температура - максимум температуры воздуха на высоте 2 м над землей.
R - Количество осадков - Количество выпавших осадков за 3 или 6 часов, мм.
SD - Снежный покров - Высота снежного покрова, см.